This demonstration page uses our WeatherBlox Daily Observations layout. Learn more.

Left ArrowRight Arrow

39.08367, -84.50855

Hourly Observations for November 25, 2015

Temp ( °F °C ) Dew Point ( °F °C ) Humidity (%) Winds ( mph kmh ) Pressure ( in mb ) Visibility ( mi km ) Precip ( " mm )
12:53 am 00:53 Clear 32 0 32 0 100 100 Calm 30.40 1030 8 13 0.00 0.00
1:53 am 01:53 Clear 31 -0.6 31 -0.6 100 100 Calm 30.40 1030 7 11 0.00 0.00
2:38 am 02:38 Clear with Mist and Fog 30 -1 30 -1 100 100 Calm 30.45 1031 2 3 0.00 0.00
2:46 am 02:46 Clear with Mist and Fog 30 -1 30 -1 100 100 Calm 30.45 1031 3 5 0.00 0.00
2:53 am 02:53 Clear with Mist and Fog 30 -1.1 30 -1.1 100 100 Calm 30.42 1030 3 4 0.00 0.00
3:01 am 03:01 Clear with Mist and Fog 31 -0.6 31 -0.6 100 100 Calm 30.45 1031 2 2 0.00 0.00
3:17 am 03:17 Clear with Mist and Fog 31 -0.6 31 -0.6 100 100 Calm 30.45 1031 3 5 0.00 0.00
3:53 am 03:53 Clear 31 -0.6 31 -0.6 100 100 Calm 30.42 1030 7 11 0.00 0.00
4:53 am 04:53 Clear 30 -1.1 30 -1.1 100 100 Calm 30.44 1031 7 11 0.00 0.00
5:38 am 05:38 Clear with Mist and Fog 28 -2 28 -2 100 100 Calm 30.45 1031 2 3 0.00 0.00
5:51 am 05:51 Clear with Mist and Fog 28 -2 28 -2 100 100 Calm 30.48 1032 3 5 0.00 0.00
5:53 am 05:53 Clear with Mist and Fog 29 -1.7 28 -2.2 96 96 Calm 30.45 1031 4 6 0.00 0.00
6:15 am 06:15 Clear with Mist and Fog 29 -1.7 29 -1.7 100 100 Calm 30.48 1032 2 2 0.00 0.00
6:42 am 06:42 Mostly Clear with Mist and Fog 28 -2 28 -2 100 100 Calm 30.48 1032 3 5 0.00 0.00
6:53 am 06:53 Mostly Cloudy with Mist and Fog 29 -1.7 29 -1.7 100 100 Calm 30.47 1032 4 6 0.00 0.00
7:11 am 07:11 Mostly Cloudy with Freezing Fog 29 -1.7 29 -1.7 100 100 Calm 30.48 1032 1 1 0.00 0.00
7:53 am 07:53 Mostly Cloudy with Freezing Fog 29 -1.7 29 -1.7 100 100 Calm 30.48 1032 1 1 0.00 0.00
8:24 am 08:24 Partly Cloudy with Mist and Fog 30 -1 30 -1 100 100 Calm 30.50 1033 1 2 0.00 0.00
8:53 am 08:53 Partly Cloudy with Mist and Fog 30 -1.1 30 -1.1 100 100 Calm 30.50 1033 3 4 0.00 0.00
9:00 am 09:00 Partly Cloudy with Mist and Fog 30 -1 30 -1 100 100 Calm 30.50 1033 3 5 0.00 0.00
9:53 am 09:53 Sunny 41 5 39 3.9 93 93 Calm 30.49 1033 10 16 0.00 0.00
10:53 am 10:53 Sunny 50 10 36 2.2 59 59 S 6 9 30.48 1032 10 16 0.00 0.00
11:53 am 11:53 Sunny 55 12.8 34 1.1 45 45 SSW 13 20 30.47 1032 10 16 0.00 0.00
12:53 pm 12:53 Sunny 58 14.4 34 1.1 41 41 S 9 15 30.44 1031 10 16 0.00 0.00
1:53 pm 13:53 Sunny 59 15 32 0 36 36 SSE 13 20 30.41 1030 10 16 0.00 0.00
2:53 pm 14:53 Sunny 59 15 31 -0.6 35 35 S 14 22 30.39 1029 10 16 0.00 0.00
3:53 pm 15:53 Sunny 58 14.4 29 -1.7 33 33 S 14 22 30.38 1029 10 16 0.00 0.00
4:53 pm 16:53 Sunny 56 13.3 30 -1.1 37 37 SSE 10 17 30.39 1029 10 16 0.00 0.00
5:53 pm 17:53 Clear 50 10 31 -0.6 48 48 S 6 9 30.42 1030 10 16 0.00 0.00
6:53 pm 18:53 Clear 48 8.9 31 -0.6 52 52 Calm 30.42 1030 10 16 0.00 0.00
7:53 pm 19:53 Clear 42 5.6 32 0 68 68 W 3 6 30.43 1031 10 16 0.00 0.00
8:53 pm 20:53 Clear 39 3.9 33 0.6 79 79 WSW 3 6 30.44 1031 10 16 0.00 0.00
9:53 pm 21:53 Clear 37 2.8 32 0 82 82 S 3 6 30.45 1031 10 16 0.00 0.00
10:53 pm 22:53 Clear 37 2.8 34 1.1 89 89 SW 7 11 30.46 1032 10 16 0.00 0.00
11:53 pm 23:53 Clear 38 3.3 35 1.7 89 89 SW 5 7 30.48 1032 10 16 0.00 0.00

Powered by AerisWeather